When you browse on this site, cookies collect data to enhance your experience and personalize the content and advertising you see.
Visit our Privacy Policy to learn more. By continuing to use the site, you agree to this use of cookies and data.
  • In Czech Republic
  • List of Countries
  • For 7 days
  • Water Temperature
  • Weather Map
  • Weather Widgets
  • user-avatar
    Login

    Hourly Weather Uige

    Today, 12 November, Tuesday

    Time Temperature Precipitation Wind Pressure Humidity
    00:00 +19°C° 0 mm 0 mps 689 mmHg 97%
    01:00 +19°C° 0 mm 0 mps 689 mmHg 96%
    02:00 +19°C° 0 mm 0 mps 689 mmHg 96%
    03:00 +19°C° 0 mm 0 mps 689 mmHg 97%
    04:00 +19°C° 0 mm 0 mps 688 mmHg 98%
    05:00 +20°C° 0 mm 0 mps 689 mmHg 96%
    06:00 +20°C° 0 mm 0 mps 689 mmHg 95%
    07:00 +21°C° 0 mm 0 mps 690 mmHg 94%
    08:00 +23°C° 0 mm 0 mps 690 mmHg 86%
    09:00 +25°C° 0 mm 0 mps 690 mmHg 77%
    10:00 +28°C° 0 mm 0 mps 691 mmHg 68%
    11:00 +27°C° 0.9 mm 0 mps 690 mmHg 74%
    12:00 +29°C° 0.9 mm 1 mps 689 mmHg 79%
    13:00 +28°C° 0.9 mm 1 mps 688 mmHg 84%
    14:00 +28°C° 1.7 mm 1 mps 688 mmHg 86%
    15:00 +27°C° 1.7 mm 1 mps 687 mmHg 89%
    16:00 +27°C° 1.7 mm 1 mps 686 mmHg 91%
    17:00 +25°C° 1.1 mm 1 mps 687 mmHg 93%
    18:00 +22°C° 1.1 mm 0 mps 688 mmHg 94%
    19:00 +21°C° 1.1 mm 0 mps 688 mmHg 96%
    20:00 +21°C° 0.4 mm 0 mps 689 mmHg 96%
    21:00 +21°C° 0.4 mm 0 mps 689 mmHg 96%
    22:00 +21°C° 0.4 mm 0 mps 689 mmHg 96%
    23:00 +20°C° 0.4 mm 0 mps 689 mmHg 97%

    Tomorrow, 13 November, Wednesday

    Time Temperature Precipitation Wind Pressure Humidity
    00:00 +20°C° 0.4 mm 0 mps 689 mmHg 98%
    01:00 +22°C° 0.4 mm 1 mps 689 mmHg 98%
    02:00 +22°C° 0.9 mm 1 mps 689 mmHg 99%
    03:00 +22°C° 0.9 mm 1 mps 689 mmHg 99%
    04:00 +22°C° 0.9 mm 1 mps 688 mmHg 99%
    05:00 +21°C° 0.6 mm 0 mps 689 mmHg 98%
    06:00 +21°C° 0.6 mm 0 mps 690 mmHg 97%
    07:00 +22°C° 0.6 mm 0 mps 690 mmHg 97%
    08:00 +23°C° 1.8 mm 0 mps 690 mmHg 94%
    09:00 +24°C° 1.8 mm 0 mps 690 mmHg 91%
    10:00 +27°C° 1.8 mm 1 mps 691 mmHg 88%
    11:00 +24°C° 2.3 mm 0 mps 690 mmHg 90%
    12:00 +24°C° 2.3 mm 0 mps 690 mmHg 92%
    13:00 +24°C° 2.3 mm 0 mps 689 mmHg 94%
    14:00 +23°C° 1.5 mm 0 mps 689 mmHg 94%
    15:00 +23°C° 1.5 mm 0 mps 689 mmHg 94%
    16:00 +23°C° 1.5 mm 0 mps 688 mmHg 95%
    17:00 +22°C° 1.5 mm 0 mps 689 mmHg 96%
    18:00 +21°C° 1.5 mm 0 mps 689 mmHg 97%
    19:00 +23°C° 1.5 mm 1 mps 690 mmHg 98%
    20:00 +22°C° 3.6 mm 1 mps 690 mmHg 98%
    21:00 +22°C° 3.6 mm 1 mps 690 mmHg 98%
    22:00 +22°C° 3.6 mm 1 mps 690 mmHg 98%
    23:00 +22°C° 2 mm 1 mps 690 mmHg 98%

    Day after tomorrow, 14 November, Thursday

    Time Temperature Precipitation Wind Pressure Humidity
    00:00 +22°C° 2 mm 1 mps 690 mmHg 98%
    01:00 +21°C° 2 mm 1 mps 689 mmHg 98%
    02:00 +21°C° 0.8 mm 1 mps 689 mmHg 98%
    03:00 +21°C° 0.8 mm 1 mps 689 mmHg 98%
    04:00 +21°C° 0.8 mm 1 mps 689 mmHg 98%
    05:00 +21°C° 0.3 mm 1 mps 689 mmHg 97%
    06:00 +21°C° 0.3 mm 1 mps 690 mmHg 97%
    07:00 +21°C° 0.3 mm 1 mps 690 mmHg 97%
    08:00 +22°C° 0 mm 1 mps 690 mmHg 96%
    09:00 +23°C° 0 mm 1 mps 690 mmHg 94%
    10:00 +23°C° 0 mm 1 mps 690 mmHg 93%
    11:00 +22°C° 0 mm 0 mps 690 mmHg 89%
    12:00 +23°C° 0 mm 0 mps 689 mmHg 85%
    13:00 +24°C° 0 mm 0 mps 689 mmHg 82%
    14:00 +25°C° 0 mm 0 mps 689 mmHg 78%
    15:00 +27°C° 0 mm 1 mps 688 mmHg 74%
    16:00 +28°C° 0 mm 1 mps 688 mmHg 71%
    17:00 +26°C° 0.2 mm 1 mps 688 mmHg 78%
    18:00 +23°C° 0.2 mm 0 mps 689 mmHg 86%
    19:00 +21°C° 0.2 mm 0 mps 689 mmHg 94%
    20:00 +21°C° 0.7 mm 0 mps 689 mmHg 95%
    21:00 +21°C° 0.7 mm 0 mps 690 mmHg 96%
    22:00 +20°C° 0.7 mm 0 mps 690 mmHg 97%
    23:00 +20°C° 0.7 mm 0 mps 690 mmHg 97%

    15 November, Friday

    Time Temperature Precipitation Wind Pressure Humidity
    00:00 +20°C° 0.7 mm 0 mps 690 mmHg 98%
    01:00 +20°C° 0.7 mm 0 mps 689 mmHg 98%
    02:00 +20°C° 1.7 mm 0 mps 689 mmHg 98%
    03:00 +20°C° 1.7 mm 0 mps 689 mmHg 99%
    04:00 +20°C° 1.7 mm 0 mps 689 mmHg 99%
    05:00 +22°C° 0.7 mm 1 mps 689 mmHg 99%
    06:00 +22°C° 0.7 mm 1 mps 690 mmHg 98%
    07:00 +23°C° 0.7 mm 1 mps 690 mmHg 98%
    08:00 +24°C° 0.4 mm 1 mps 690 mmHg 93%
    09:00 +26°C° 0.4 mm 1 mps 691 mmHg 87%
    10:00 +27°C° 0.4 mm 1 mps 691 mmHg 81%
    11:00 +27°C° 1.2 mm 1 mps 690 mmHg 84%
    12:00 +26°C° 1.2 mm 1 mps 689 mmHg 87%
    13:00 +26°C° 1.2 mm 1 mps 689 mmHg 89%
    14:00 +25°C° 1.1 mm 1 mps 688 mmHg 92%
    15:00 +24°C° 1.1 mm 1 mps 688 mmHg 94%
    16:00 +23°C° 1.1 mm 2 mps 687 mmHg 97%
    17:00 +23°C° 1.2 mm 1 mps 688 mmHg 97%
    18:00 +22°C° 1.2 mm 1 mps 688 mmHg 98%
    19:00 +22°C° 1.2 mm 1 mps 689 mmHg 99%
    20:00 +22°C° 0.8 mm 1 mps 689 mmHg 99%
    21:00 +22°C° 0.8 mm 1 mps 689 mmHg 99%
    22:00 +22°C° 0.8 mm 1 mps 690 mmHg 99%
    23:00 +22°C° 0.1 mm 1 mps 689 mmHg 99%

    16 November, Saturday

    Time Temperature Precipitation Wind Pressure Humidity
    00:00 +22°C° 0.1 mm 1 mps 689 mmHg 99%
    01:00 +21°C° 0.1 mm 1 mps 689 mmHg 99%
    02:00 +21°C° 0 mm 1 mps 688 mmHg 99%
    03:00 +21°C° 0 mm 1 mps 688 mmHg 99%
    04:00 +21°C° 0 mm 1 mps 688 mmHg 98%
    05:00 +19°C° 0 mm 0 mps 689 mmHg 97%
    06:00 +20°C° 0 mm 0 mps 689 mmHg 96%
    07:00 +20°C° 0 mm 0 mps 689 mmHg 95%
    08:00 +20°C° 0 mm 0 mps 690 mmHg 95%
    09:00 +21°C° 0 mm 0 mps 690 mmHg 94%
    10:00 +23°C° 0 mm 1 mps 690 mmHg 93%
    11:00 +23°C° 0 mm 1 mps 689 mmHg 92%
    12:00 +24°C° 0 mm 1 mps 689 mmHg 90%
    13:00 +24°C° 0 mm 1 mps 688 mmHg 89%
    14:00 +25°C° 0 mm 1 mps 688 mmHg 83%
    15:00 +26°C° 0 mm 1 mps 687 mmHg 78%
    16:00 +27°C° 0 mm 1 mps 687 mmHg 73%
    17:00 +23°C° 0 mm 0 mps 687 mmHg 80%
    18:00 +22°C° 0 mm 0 mps 687 mmHg 86%
    19:00 +20°C° 0 mm 0 mps 687 mmHg 93%
    20:00 +20°C° 0 mm 0 mps 688 mmHg 93%
    21:00 +20°C° 0 mm 0 mps 688 mmHg 93%
    22:00 +19°C° 0 mm 0 mps 689 mmHg 93%
    23:00 +19°C° 0 mm 0 mps 688 mmHg 93%

    17 November, Sunday

    Time Temperature Precipitation Wind Pressure Humidity
    00:00 +19°C° 0 mm 0 mps 688 mmHg 93%
    01:00 +19°C° 0 mm 0 mps 688 mmHg 93%
    02:00 +19°C° 0.2 mm 0 mps 688 mmHg 94%
    03:00 +19°C° 0.2 mm 0 mps 688 mmHg 95%
    04:00 +19°C° 0.2 mm 0 mps 688 mmHg 96%
    05:00 +20°C° 0 mm 0 mps 688 mmHg 95%
    06:00 +20°C° 0 mm 0 mps 689 mmHg 93%
    07:00 +21°C° 0 mm 0 mps 689 mmHg 91%
    08:00 +23°C° 0.2 mm 0 mps 690 mmHg 84%
    09:00 +27°C° 0.2 mm 1 mps 690 mmHg 77%
    10:00 +29°C° 0.2 mm 1 mps 690 mmHg 70%
    11:00 +29°C° 0.7 mm 1 mps 690 mmHg 72%
    12:00 +29°C° 0.7 mm 2 mps 689 mmHg 75%
    13:00 +29°C° 0.7 mm 2 mps 688 mmHg 77%
    14:00 +28°C° 1.1 mm 2 mps 688 mmHg 80%
    15:00 +28°C° 1.1 mm 2 mps 687 mmHg 84%
    16:00 +27°C° 1.1 mm 2 mps 687 mmHg 88%
    17:00 +25°C° 0.7 mm 1 mps 687 mmHg 91%
    18:00 +24°C° 0.7 mm 1 mps 688 mmHg 94%
    19:00 +21°C° 0.7 mm 0 mps 688 mmHg 96%
    20:00 +21°C° 0.8 mm 0 mps 689 mmHg 97%
    21:00 +20°C° 0.8 mm 0 mps 689 mmHg 97%
    22:00 +22°C° 0.8 mm 1 mps 690 mmHg 97%
    23:00 +22°C° 0.5 mm 1 mps 690 mmHg 98%
    Show more